Date,TemperatureHighF,TemperatureAvgF,TemperatureLowF,DewpointHighF,DewpointAvgF,DewpointLowF,HumidityHigh,HumidityAvg,HumidityLow,PressureMaxIn,PressureMinIn,WindSpeedMaxMPH,WindSpeedAvgMPH,GustSpeedMaxMPH,PrecipitationSumIn
2013-8-1,89,78,68,76,68,65,100,76,47,30.04,29.92,7,1,7,0.31
2013-8-2,88,77,68,75,69,64,100,76,60,29.98,29.86,8,2,8,0.31
2013-8-3,87,77,68,76,71,64,100,84,54,30.10,29.89,22,1,22,0.51
2013-8-4,84,75,71,74,70,66,100,84,59,30.07,29.98,10,2,10,0.31
2013-8-5,91,80,71,73,71,68,100,78,53,30.01,29.83,6,2,6,0.31
2013-8-6,93,84,74,79,73,63,100,72,47,29.89,29.78,10,2,10,0.31
2013-8-7,91,83,73,79,76,73,100,82,64,29.89,29.80,12,2,12,0.31
2013-8-8,95,80,69,81,75,68,100,87,59,29.92,29.80,26,3,26,2.36
2013-8-9,89,78,71,79,73,70,100,88,61,30.01,29.89,14,2,14,0.31
2013-8-10,90,78,71,78,73,69,100,86,58,30.04,29.95,12,2,12,0.63
2013-8-11,90,78,73,75,73,70,100,84,57,30.07,29.98,8,1,8,0.31
2013-8-12,89,76,71,76,73,68,100,91,60,30.01,29.92,19,1,19,0.31
2013-8-13,83,73,70,74,71,68,100,95,66,30.01,29.89,12,1,12,1.57
2013-8-14,83,72,63,70,64,59,100,77,50,30.10,29.98,11,2,11,0.31
2013-8-15,79,68,56,63,59,55,100,76,51,30.10,29.98,8,1,8,0.31
2013-8-16,77,67,58,65,60,57,100,82,52,30.07,30.01,8,1,8,0.31
2013-8-17,85,70,58,66,62,58,100,79,49,30.07,29.98,9,1,9,0.31
2013-8-18,86,73,63,70,65,63,100,79,53,30.10,30.01,12,2,12,0.31
2013-8-19,88,74,62,70,66,62,100,79,50,30.10,29.95,8,1,8,0.31
2013-8-20,90,76,64,73,67,64,100,77,46,30.07,29.98,9,1,9,0.31
2013-8-21,92,78,65,75,68,65,100,76,46,30.10,30.01,8,1,8,0.31
2013-8-22,93,79,66,76,70,66,100,77,49,30.07,29.95,8,1,8,0.31
2013-8-23,96,80,67,78,70,67,100,76,45,30.04,29.95,9,1,9,0.31
2013-8-24,94,80,69,78,71,67,100,76,47,30.10,30.01,9,1,9,0.31
2013-8-25,92,81,71,74,71,67,100,74,51,30.19,30.10,9,1,9,0.31
2013-8-26,92,80,72,75,71,67,100,75,49,30.19,30.07,9,2,9,0.31
2013-8-27,94,79,67,72,69,66,100,75,46,30.10,29.98,8,1,8,0.31
2013-8-28,96,80,68,74,70,67,100,74,46,30.07,29.95,6,1,8,0.31
2013-8-29,95,81,68,78,72,68,100,77,48,30.04,29.95,10,1,10,0.31
2013-8-30,97,82,71,76,72,70,100,75,45,29.98,29.83,11,2,11,0.31
2013-8-31,97,83,71,77,72,70,100,73,45,29.89,29.78,12,1,12,0.31